Location: Newark
(41.9364°N, 2.8061°E)
Time: 09:49:15
(UTC+00:00)

A-11 Canister half - Pass Details

Date: 27 February 2020
Orbit: 1516 x 1683 km, 47.2° (Epoch: 07 April)

Event Time Altitude Azimuth Distance (km) Brightness Sun altitude
Rises 17:59:42 0° 284° (WNW) 4,894 13.2 -5.2°
Reaches altitude 10° 18:02:56 10° 287° (WNW) 3,888 12.4 -5.8°
Maximum altitude 18:12:50 68° 10° (N) 1,707 9.2 -7.7°
Enters shadow 18:22:12 11° 93° (E) 3,705 10.3 -9.4°
